TCA7766 SVMI-SVBM

Flight info

Callsign TCA7766
Flight time N/A
Altitude 24000
Route BUTSA2 PBL W9 MULCA W24 BRM
Aircraft B738/M-SDE2E3FGHIRWXY/LB1

Departure

Time 2026-04-27 23:17
Airport Maiquetía Simón Bolívar International Airport (SVMI)

Arrival

Time N/A
Airport Jacinto Lara International Airport (SVBM)
Time Latitude Longitude Altitude Speed Heading
2026-04-27 22:50 10.59839 -66.99928 219 ft 0 kts 178°
2026-04-27 23:11 10.59852 -66.99929 219 ft 4 kts 178°
2026-04-27 23:11 10.59879 -66.99930 222 ft 4 kts 178°
2026-04-27 23:11 10.59903 -66.99933 220 ft 4 kts 139°
2026-04-27 23:11 10.59913 -66.99954 220 ft 4 kts 92°
2026-04-27 23:12 10.59913 -66.99969 219 ft 1 kts 88°
2026-04-27 23:12 10.59913 -66.99970 219 ft 0 kts 88°
2026-04-27 23:14 10.59913 -66.99956 220 ft 6 kts 88°
2026-04-27 23:14 10.59943 -66.99919 218 ft 7 kts 25°
2026-04-27 23:14 10.59999 -66.99913 218 ft 10 kts 359°
2026-04-27 23:14 10.60081 -66.99915 224 ft 12 kts
2026-04-27 23:15 10.60133 -66.99855 216 ft 12 kts 83°
2026-04-27 23:15 10.60138 -66.99765 220 ft 13 kts 88°
2026-04-27 23:15 10.60112 -66.99677 217 ft 14 kts 142°
2026-04-27 23:15 10.60022 -66.99663 219 ft 13 kts 178°
2026-04-27 23:16 10.59940 -66.99661 218 ft 8 kts 169°
2026-04-27 23:16 10.59914 -66.99602 214 ft 19 kts 85°
2026-04-27 23:16 10.60024 -66.99147 205 ft 112 kts 76°
2026-04-27 23:16 10.60272 -66.98129 319 ft 172 kts 76°
2026-04-27 23:17 10.60520 -66.96988 1484 ft 159 kts 80°
2026-04-27 23:17 10.60744 -66.95837 2336 ft 177 kts 78°
2026-04-27 23:17 10.61034 -66.94496 2741 ft 209 kts 78°
2026-04-27 23:17 10.61348 -66.92978 2981 ft 231 kts 79°
2026-04-27 23:18 10.61829 -66.91354 3229 ft 255 kts 58°
2026-04-27 23:18 10.63239 -66.90212 3716 ft 271 kts 20°
2026-04-27 23:18 10.65125 -66.90069 4637 ft 275 kts 358°
2026-04-27 23:18 10.67043 -66.90155 5497 ft 277 kts
2026-04-27 23:19 10.68987 -66.90160 6297 ft 281 kts
2026-04-27 23:19 10.70961 -66.90115 6741 ft 284 kts
2026-04-27 23:19 10.72947 -66.90049 6988 ft 286 kts
2026-04-27 23:19 10.74918 -66.89976 7282 ft 287 kts
2026-04-27 23:20 10.76939 -66.89898 7993 ft 292 kts
2026-04-27 23:20 10.78973 -66.89819 8814 ft 294 kts
2026-04-27 23:20 10.81031 -66.89987 9536 ft 303 kts 344°
2026-04-27 23:20 10.82864 -66.91059 10259 ft 310 kts 317°
2026-04-27 23:21 10.84101 -66.92916 10530 ft 333 kts 289°
2026-04-27 23:21 10.84426 -66.95303 10739 ft 352 kts 270°
2026-04-27 23:21 10.84385 -66.97877 10948 ft 371 kts 267°
2026-04-27 23:21 10.84296 -67.00498 11448 ft 378 kts 267°
2026-04-27 23:22 10.84219 -67.03177 12109 ft 380 kts 268°
2026-04-27 23:22 10.84170 -67.05873 12779 ft 382 kts 268°
2026-04-27 23:22 10.84142 -67.08595 13413 ft 385 kts 269°
2026-04-27 23:22 10.84127 -67.11332 13998 ft 389 kts 269°
2026-04-27 23:23 10.84116 -67.14092 14551 ft 391 kts 269°
2026-04-27 23:23 10.84106 -67.16881 15113 ft 394 kts 269°
2026-04-27 23:23 10.84095 -67.19686 15661 ft 396 kts 268°
2026-04-27 23:23 10.83811 -67.22468 16171 ft 398 kts 255°
2026-04-27 23:24 10.83091 -67.25185 16744 ft 399 kts 252°
2026-04-27 23:24 10.82302 -67.27906 17260 ft 402 kts 252°
2026-04-27 23:24 10.81507 -67.30609 17774 ft 405 kts 252°
2026-04-27 23:24 10.80707 -67.33363 18273 ft 407 kts 252°
2026-04-27 23:25 10.79913 -67.36147 18705 ft 410 kts 252°
2026-04-27 23:25 10.79127 -67.38941 19143 ft 412 kts 253°
2026-04-27 23:25 10.78343 -67.41753 19577 ft 414 kts 253°
2026-04-27 23:25 10.77560 -67.44576 19993 ft 417 kts 253°
2026-04-27 23:26 10.76770 -67.47430 20397 ft 419 kts 253°
2026-04-27 23:26 10.75979 -67.50292 20802 ft 422 kts 253°
2026-04-27 23:26 10.75183 -67.53166 21205 ft 424 kts 253°
2026-04-27 23:26 10.74383 -67.56056 21599 ft 426 kts 253°
2026-04-27 23:27 10.73576 -67.58969 21979 ft 429 kts 253°
2026-04-27 23:27 10.72765 -67.61895 22356 ft 431 kts 253°
2026-04-27 23:27 10.71947 -67.64842 22722 ft 433 kts 253°
2026-04-27 23:27 10.71130 -67.67788 23083 ft 435 kts 253°
2026-04-27 23:28 10.70308 -67.70749 23532 ft 435 kts 253°
2026-04-27 23:28 10.69485 -67.73714 23871 ft 436 kts 253°
2026-04-27 23:28 10.68652 -67.76709 23931 ft 442 kts 253°
2026-04-27 23:28 10.67821 -67.79700 23948 ft 448 kts 253°
2026-04-27 23:29 10.66966 -67.82778 23959 ft 453 kts 253°
2026-04-27 23:29 10.66100 -67.85883 23959 ft 458 kts 252°
2026-04-27 23:29 10.64872 -67.88862 23937 ft 461 kts 237°
2026-04-27 23:29 10.62891 -67.91427 23966 ft 460 kts 227°
2026-04-27 23:30 10.60741 -67.93827 23954 ft 460 kts 226°
2026-04-27 23:30 10.58589 -67.96197 23950 ft 460 kts 226°
2026-04-27 23:30 10.56434 -67.98600 23949 ft 460 kts 227°
2026-04-27 23:30 10.54269 -68.01059 23952 ft 460 kts 227°
2026-04-27 23:31 10.52179 -68.03456 23955 ft 460 kts 227°
2026-04-27 23:31 10.50074 -68.05905 23954 ft 460 kts 231°
2026-04-27 23:31 10.48436 -68.08690 23964 ft 461 kts 247°
2026-04-27 23:31 10.47607 -68.11841 23974 ft 462 kts 259°
2026-04-27 23:32 10.47115 -68.15072 23968 ft 463 kts 261°
2026-04-27 23:32 10.46657 -68.18307 23961 ft 463 kts 261°
2026-04-27 23:32 10.46198 -68.21542 23964 ft 463 kts 261°
2026-04-27 23:32 10.45725 -68.24780 23958 ft 463 kts 260°
2026-04-27 23:33 10.45237 -68.28013 23965 ft 463 kts 260°
2026-04-27 23:33 10.44743 -68.31208 23961 ft 463 kts 260°
2026-04-27 23:33 10.44237 -68.34444 23971 ft 463 kts 260°
2026-04-27 23:33 10.43729 -68.37672 23974 ft 463 kts 260°
2026-04-27 23:34 10.43219 -68.40907 23969 ft 463 kts 260°
2026-04-27 23:34 10.42713 -68.44123 23973 ft 463 kts 260°
2026-04-27 23:34 10.42203 -68.47360 23968 ft 463 kts 260°
2026-04-27 23:34 10.41695 -68.50591 23973 ft 463 kts 260°
2026-04-27 23:35 10.41194 -68.53778 23957 ft 452 kts 259°
2026-04-27 23:35 10.40707 -68.56878 23962 ft 440 kts 259°
2026-04-27 23:35 10.40225 -68.59934 23967 ft 437 kts 259°
2026-04-27 23:35 10.39742 -68.62997 23974 ft 438 kts 259°
2026-04-27 23:36 10.39258 -68.66064 23652 ft 440 kts 259°
2026-04-27 23:36 10.38778 -68.69106 23152 ft 436 kts 259°
2026-04-27 23:36 10.38316 -68.72111 22643 ft 431 kts 260°
2026-04-27 23:36 10.37872 -68.75137 22102 ft 427 kts 261°
2026-04-27 23:37 10.37445 -68.78102 21579 ft 423 kts 260°
2026-04-27 23:37 10.37020 -68.81052 21052 ft 420 kts 261°
2026-04-27 23:37 10.36596 -68.83975 20523 ft 417 kts 260°
2026-04-27 23:37 10.36173 -68.86882 20008 ft 414 kts 261°
2026-04-27 23:38 10.35751 -68.89764 19470 ft 412 kts 260°
2026-04-27 23:38 10.35329 -68.92644 18948 ft 410 kts 260°
2026-04-27 23:38 10.35051 -68.94532 18600 ft 409 kts 260°
2026-04-27 23:38 10.34512 -68.98207 17866 ft 407 kts 260°
2026-04-27 23:39 10.34094 -69.01054 17328 ft 404 kts 260°
2026-04-27 23:39 10.33680 -69.03872 16802 ft 401 kts 260°
2026-04-27 23:39 10.33085 -69.06627 16268 ft 397 kts 249°
2026-04-27 23:39 10.31883 -69.09116 15791 ft 391 kts 236°
2026-04-27 23:40 10.30192 -69.11249 15298 ft 386 kts 223°
2026-04-27 23:40 10.28230 -69.13087 14848 ft 382 kts 220°
2026-04-27 23:40 10.26254 -69.14882 14346 ft 381 kts 220°
2026-04-27 23:40 10.24278 -69.16676 13856 ft 380 kts 220°
2026-04-27 23:41 10.22320 -69.18465 13313 ft 378 kts 220°
2026-04-27 23:41 10.20377 -69.20257 12813 ft 376 kts 220°
2026-04-27 23:41 10.18473 -69.22020 12314 ft 373 kts 221°
2026-04-27 23:41 10.16570 -69.23788 11828 ft 371 kts 220°
2026-04-27 23:42 10.14669 -69.25556 11358 ft 369 kts 220°
2026-04-27 23:42 10.12783 -69.27312 11009 ft 363 kts 220°
2026-04-27 23:42 10.10947 -69.29021 10810 ft 353 kts 221°
2026-04-27 23:42 10.09165 -69.30679 10661 ft 342 kts 220°
2026-04-27 23:43 10.07431 -69.32291 10513 ft 332 kts 220°
2026-04-27 23:43 10.06316 -69.33326 10416 ft 326 kts 220°
2026-04-27 23:43 10.04804 -69.34998 10255 ft 317 kts 236°
2026-04-27 23:43 10.03973 -69.37006 10148 ft 303 kts 256°
2026-04-27 23:44 10.03605 -69.39059 10022 ft 289 kts 259°
2026-04-27 23:44 10.03211 -69.41694 9712 ft 284 kts 259°
2026-04-27 23:44 10.03013 -69.43030 9529 ft 283 kts 260°
2026-04-27 23:44 10.02715 -69.44997 9253 ft 281 kts 259°
2026-04-27 23:45 10.02411 -69.46968 8822 ft 286 kts 259°
2026-04-27 23:45 10.02101 -69.48941 8537 ft 285 kts 259°
2026-04-27 23:45 10.01790 -69.50908 8364 ft 279 kts 259°
2026-04-27 23:45 10.01611 -69.52857 8097 ft 279 kts 277°
2026-04-27 23:46 10.02321 -69.54658 7900 ft 274 kts 304°
2026-04-27 23:46 10.03378 -69.56209 7831 ft 264 kts 305°
2026-04-27 23:46 10.04411 -69.57701 7804 ft 251 kts 305°
2026-04-27 23:46 10.05436 -69.59171 7423 ft 251 kts 305°
2026-04-27 23:47 10.06395 -69.60574 7256 ft 234 kts 297°
2026-04-27 23:47 10.06703 -69.62089 7076 ft 212 kts 256°
2026-04-27 23:47 10.06027 -69.63267 6876 ft 184 kts 209°
2026-04-27 23:47 10.04823 -69.63485 6711 ft 192 kts 158°
2026-04-27 23:48 10.03696 -69.62748 6850 ft 197 kts 139°
2026-04-27 23:48 10.02817 -69.61802 6794 ft 179 kts 126°
2026-04-27 23:48 10.02235 -69.60751 6643 ft 165 kts 114°
2026-04-27 23:48 10.01884 -69.59693 6464 ft 156 kts 107°
2026-04-27 23:49 10.01676 -69.58619 6287 ft 154 kts 101°
2026-04-27 23:49 10.01542 -69.57532 6083 ft 155 kts 99°
2026-04-27 23:49 10.01478 -69.56437 5866 ft 156 kts 94°
2026-04-27 23:49 10.01496 -69.55338 5654 ft 155 kts 92°
2026-04-27 23:50 10.01534 -69.54244 5456 ft 157 kts 89°
2026-04-27 23:50 10.01641 -69.53136 5239 ft 157 kts 86°
2026-04-27 23:50 10.01785 -69.52056 5034 ft 152 kts 85°
2026-04-27 23:50 10.01942 -69.50982 4817 ft 155 kts 85°
2026-04-27 23:51 10.02104 -69.49910 4600 ft 153 kts 84°
2026-04-27 23:51 10.02266 -69.48846 4411 ft 153 kts 84°
2026-04-27 23:51 10.02429 -69.47776 4177 ft 152 kts 84°
2026-04-27 23:51 10.02590 -69.46724 3994 ft 151 kts 85°
2026-04-27 23:52 10.02753 -69.45662 3779 ft 150 kts 85°
2026-04-27 23:52 10.02912 -69.44624 3573 ft 152 kts 86°
2026-04-27 23:52 10.03073 -69.43573 3374 ft 148 kts 84°
2026-04-27 23:52 10.03233 -69.42529 3209 ft 156 kts 84°
2026-04-27 23:53 10.03396 -69.41451 2985 ft 155 kts 84°
2026-04-27 23:53 10.03551 -69.40368 2676 ft 152 kts 83°
2026-04-27 23:53 10.03705 -69.39331 2494 ft 145 kts 81°
2026-04-27 23:53 10.03889 -69.38329 2346 ft 144 kts 81°
2026-04-27 23:54 10.04029 -69.37304 2134 ft 149 kts 82°
2026-04-27 23:54 10.04197 -69.36300 2049 ft 140 kts 82°
2026-04-27 23:54 10.04337 -69.35382 2030 ft 117 kts 80°